Hourly Data Report for June 23, 2021

CARIBOU POINT (AUT)
NOVA SCOTIA
Current Station Operator: ECCC - MSC

45°46'00.000" N
62°41'00.000" W
2.40 m
8200774
71415
WBK

Download Data

Hourly Data (June 2021)
Hourly Data Report for June 23, 2021
TIME
LST
Temp Definition
°C
Dew Point Definition
°C
Rel Hum Definition
%
Precip. Amount Definition
mm

Wind Dir Definition
10's deg

Wind Spd Definition
km/h
Visibility Definition
km
Stn Press Definition
kPa
Hmdx Definition


Wind Chill Definition


Weather Definition


00:00 19.8 19.1 96 0.0 19 19   100.51     LegendNANA
01:00 19.6 18.6 94 0.0 18 18   100.48     LegendNANA
02:00 19.3 18.0 92 0.0 20 18   100.39     LegendNANA
03:00 18.9 17.8 94 0.0 19 23   100.32     LegendNANA
04:00 18.7 17.8 95 0.0 18 34   100.27     LegendNANA
05:00 19.0 18.0 94 0.0 19 22   100.26     LegendNANA
06:00 18.1 17.5 96 0.0 16 18   100.27     LegendNANA
07:00 15.6 15.2 97 1.2 29 34   100.39     LegendNANA
08:00 15.1 14.6 97 0.6 28 38   100.55     LegendNANA
09:00 15.0 14.1 95 0.0 31 40   100.66     LegendNANA
10:00 15.7 14.1 90 0.0 30 33   100.81     LegendNANA
11:00 16.5 14.3 86 0.0 31 31   100.96     LegendNANA
12:00 16.6 14.3 86 0.0 30 34   101.08     LegendNANA
13:00 17.1 14.9 87 0.0 29 32   101.19     LegendNANA
14:00 17.3 14.7 85 0.0 30 27   101.32     LegendNANA
15:00 17.8 15.4 86 0.0 30 18   101.39     LegendNANA
16:00 17.9 15.2 84 0.0 32 13   101.46     LegendNANA
17:00 18.0 14.5 80 0.0 31 12   101.53     LegendNANA
18:00 18.4 14.7 79 0.0 29 9   101.64     LegendNANA
19:00 17.0 13.9 82 0.0 28 5   101.72     LegendNANA
20:00 17.3 13.9 81 0.0 26 5   101.83     LegendNANA
21:00 16.4 12.1 76 0.0 24 9   101.95     LegendNANA
22:00 16.0 10.7 70 0.0 25 12   102.03     LegendNANA
23:00 15.4 9.7 69 0.0 26 15   102.10     LegendNANA

Notes on Data Quality.

Legend

  • E = Estimated
  • M = Missing
  • NA = Not Available*
  • [empty] = Indicates an unobserved value
Date modified: